Tracking 17855 objects as of 24-September-2016
HD Live streaming from Space Station
objects crossing your sky now

ATLAS CENTAUR DEB

Track ATLAS CENTAUR DEB now!


NORAD ID: 25253
Int'l Code: 1978-068C
Perigee: -6,371.0 km
Apogee: -6,371.0 km
Inclination: 21.5 °
Period: 0.0 minutes
Semi major axis: 0 km
RCS: 0.1092 m2 (medium)
Launch date: June 29, 1978
Source: United States (US)
Launch site: AIR FORCE EASTERN TEST RANGE (AFETR)

Note: This is SATELLITE DEBRIS
Your satellite tracking list
Your tracking list is empty





NASA's NSSDC Master Catalog

Two Line Element Set (TLE):
1 25253U 78068C   16263.96234303 -.00000083 +00000-0 +10384-2 0  9994
2 25253 021.5283 139.5037 7051534 171.4193 353.5814 02.24996819157865
Source of the keplerian elements: AFSPC

N2YO: 448